Content
SEND FEEDBACK

Daily
Averages
Monthly
Summary
United States of America

MILAN, MICHIGAN


Home > North America > United States > Michigan
Elevation: 660 feet     Latitude: 42 05N     Longitude: 083 35W

WEATHER
 
SELECT A DAY
Number of Records: 205,661;   Date Range: 1/1/95 - 10/19/14
 
SHARE

PRINT THIS DATA

[ ← Previous Day ]
WEATHER ALMANAC - JANUARY 10, 2013
[ Next Day → ]
[ °C ]   °F
Weather ElementAverageHighLow
Temperature34.8 °F42.1 °F (12:53 pm)25 °F (6:53 am)
Dewpoint26.2 °F32 °F (9:53 pm)19 °F (6:53 am)
Humidity71.7 %85 % (4:53 am)55 % (12:53 pm)
Barometer30.46 in30.59 in (9:53 am)30.20 in (11:53 pm)
Wind Speed4.9 mph11.5 mph (2:53 pm)
Weather ElementAverage
Visibility9.2 mi
Wind DirectionENE (73.5 °)

Weather ElementTotal
Precipitation0.04 in
Heating Degree Days31.5 (Base 65)
Averaged from 23 records on January 10, 2013
WEATHER CONDITIONS BREAKOUT
WIND DIRECTION BREAKOUT
WEATHER BY HOUR - JANUARY 10, 2013
[ °C ]   °F
Local TimeTemperatureDewpointHumidityBarometerVisibilityWind DirectionWind SpeedGust SpeedPrecipitationEventsConditions
1:53 AM30.0 °F23.0 °F75 %30.53 in10.0 miSW (230°)5.8 mphClear
2:53 AM30.0 °F23.0 °F75 %30.54 in10.0 miCalmClear
3:53 AM28.0 °F21.9 °F78 %30.54 in10.0 miCalmClear
4:53 AM27.0 °F23.0 °F85 %30.53 in10.0 miCalmClear
5:53 AM26.1 °F19.9 °F78 %30.54 in10.0 miCalmClear
6:53 AM25.0 °F19.0 °F78 %30.56 in9.0 miCalmClear
7:53 AM25.0 °F19.9 °F81 %30.56 in9.0 miCalmClear
8:53 AM26.1 °F21.9 °F84 %30.58 in6.0 miCalmClear
9:53 AM32.0 °F27.0 °F82 %30.59 in6.0 miCalmHaze
10:53 AM37.9 °F28.0 °F68 %30.58 in10.0 miENE (70°)5.8 mphClear
11:53 AM41.0 °F27.0 °F57 %30.54 in10.0 miESE (110°)8.1 mphClear
12:53 PM42.1 °F27.0 °F55 %30.51 in10.0 miESE (110°)9.2 mphClear
1:53 PM42.1 °F27.0 °F55 %30.48 in10.0 miSE (130°)8.1 mphClear
2:53 PM41.0 °F27.0 °F57 %30.46 in10.0 miSE (130°)11.5 mphClear
3:53 PM41.0 °F28.0 °F60 %30.44 in10.0 miESE (120°)8.1 mphClear
4:53 PM39.0 °F28.9 °F67 %30.43 in10.0 miESE (110°)5.8 mphClear
5:53 PM39.0 °F28.0 °F65 %30.40 in10.0 miEast (100°)6.9 mphClear
6:53 PM37.9 °F28.9 °F70 %30.38 in10.0 miEast (100°)5.8 mphClear
7:53 PM37.9 °F28.9 °F70 %30.36 in10.0 miESE (110°)8.1 mphClear
8:53 PM37.9 °F30.0 °F73 %30.34 in10.0 miESE (110°)6.9 mph0.00 inRainLight Rain
9:53 PM37.9 °F32.0 °F79 %30.28 in8.0 miENE (70°)6.9 mph0.04 inRainLight Rain
10:53 PM37.9 °F32.0 °F79 %30.24 in8.0 miEast (90°)9.2 mph0.00 inOvercast
11:53 PM37.9 °F32.0 °F79 %30.20 in5.0 miEast (100°)6.9 mph0.00 inRainLight Rain
Hourly data recorded from KYIP, located miles away from Milan, Michigan







STORIES FROM OUR PARTNERS